Date,TemperatureHighF,TemperatureAvgF,TemperatureLowF,DewpointHighF,DewpointAvgF,DewpointLowF,HumidityHigh,HumidityAvg,HumidityLow,PressureMaxIn,PressureMinIn,WindSpeedMaxMPH,WindSpeedAvgMPH,GustSpeedMaxMPH,PrecipitationSumIn
2013-3-1,68,54,45,52,40,27,85,60,25,29.91,29.81,19,1,75,0.02
2013-3-2,60,50,41,38,32,23,79,53,25,29.92,29.85,19,3,29,0.00
2013-3-3,54,44,36,32,30,26,75,59,42,30.02,29.88,14,2,52,0.00
2013-3-4,69,49,29,37,28,21,88,53,19,30.08,29.99,7,0,11,0.00
2013-3-5,78,59,38,57,44,34,92,62,34,30.04,29.88,11,1,18,0.00
2013-3-6,68,58,47,63,38,23,91,52,19,30.03,29.82,21,3,30,0.00
2013-3-7,66,51,39,42,37,32,83,60,30,30.09,30.00,10,0,14,0.22
2013-3-8,77,56,38,49,40,30,99,62,21,30.08,29.99,7,0,14,0.00
2013-3-9,77,60,43,52,47,40,99,68,29,30.10,30.02,11,1,17,0.00
2013-3-10,80,65,52,57,53,39,98,68,26,30.06,29.96,16,2,78,0.00
2013-3-11,81,66,55,59,56,53,97,72,43,30.00,29.83,8,2,52,0.00
2013-3-12,74,66,56,67,60,52,96,83,67,29.93,29.76,10,1,19,0.09
2013-3-13,76,61,49,52,40,28,87,53,19,30.04,29.93,14,3,21,0.00
2013-3-14,69,56,44,45,33,25,76,45,23,30.13,30.04,13,2,17,0.00
2013-3-15,77,55,36,47,38,29,99,61,23,30.14,30.00,7,0,12,0.00
2013-3-16,82,62,43,54,43,35,98,58,22,30.05,29.93,6,0,12,0.00
2013-3-17,81,64,47,61,52,43,99,69,33,30.00,29.89,10,0,14,0.07
2013-3-18,82,70,60,67,62,59,98,78,53,29.95,29.81,110,1,110,0.01
2013-3-19,87,73,64,66,62,56,99,74,40,29.94,29.81,12,0,16,0.00
2013-3-20,78,66,59,65,60,56,99,81,59,29.89,29.73,20,1,29,0.64
2013-3-21,74,58,47,58,42,22,99,62,15,29.88,29.79,14,1,20,0.01
2013-3-22,80,61,43,56,46,39,97,64,31,29.91,29.81,9,1,18,0.00
2013-3-23,88,72,56,72,64,51,96,77,53,29.88,29.70,14,1,24,0.00
2013-3-24,81,73,66,73,68,64,95,85,70,29.75,29.55,21,3,35,0.06
2013-3-25,72,63,53,65,43,22,96,54,16,29.94,29.65,12,2,24,0.00
2013-3-26,63,52,43,40,29,19,66,43,22,30.10,29.93,14,2,20,0.00
2013-3-27,66,50,37,40,32,23,82,56,22,30.15,30.06,9,1,16,0.00
2013-3-28,72,55,37,46,36,26,99,56,19,30.14,30.04,11,0,15,0.00
2013-3-29,80,59,39,51,39,28,99,56,18,30.17,30.05,9,0,14,0.00
2013-3-30,82,63,43,52,46,39,92,59,29,30.11,29.99,11,0,16,0.00
2013-3-31,87,68,54,58,52,42,89,61,27,30.05,29.89,11,1,17,0.00